Kansas Department of Transportation
RWIS(Road and Runway Information System) Map and Weather Data





Station
Surface
Air
Wind
Site IDSensor TypeLocationTemperature (°F)Temperature (°F)Humidity (%)Speed (mi/h)Gusts (mi/h)DirectionTime
123002AtmosphericBonner Springs 817724ENEJul 2 2020 12:55AM
123002ApproachBonner Springs82     Jul 2 2020 12:55AM
123002DeckBonner Springs81     Jul 2 2020 12:55AM
123014AtmosphericBull Creek 759024ESEJul 2 2020 12:55AM
123014DeckBull Creek81     Jul 2 2020 12:55AM
123014DepartureBull Creek82     Jul 2 2020 12:55AM
123015AtmosphericLeavenworth 779611SEJul 2 2020 12:55AM
123015DeckLeavenworth79     Jul 2 2020 12:55AM
123015DepartureLeavenworth81     Jul 2 2020 12:55AM
123020AtmosphericMayetta 739144NEJul 2 2020 12:55AM
123020RoadwayMayettaUnavailable     Jul 2 2020 12:55AM
123020DeckMayettaUnavailable     Jul 2 2020 12:55AM
505000AtmosphericKTA 1      Jul 1 2020 7:00AM
505000ApproachKTA 1      Jul 1 2020 7:00AM
505000DeckKTA 1      Jul 1 2020 7:00AM
505001AtmosphericKTA 2 849146SJul 2 2020 12:52AM
505001ApproachKTA 293     Jul 2 2020 12:52AM
505001DeckKTA 291     Jul 2 2020 12:52AM
505002AtmosphericKTA 3 829924SJul 2 2020 12:52AM
505002ApproachKTA 391     Jul 2 2020 12:52AM
505002DeckKTA 391     Jul 2 2020 12:52AM
505003AtmosphericKTA 4 7980712NJul 2 2020 12:52AM
505003ApproachKTA 4Unavailable     Jul 2 2020 12:52AM
505003DeckKTA 488     Jul 2 2020 12:52AM
505004AtmosphericKTA 5 7599912WNWJul 2 2020 12:52AM
505004RoadwayKTA 5Unavailable     Jul 2 2020 12:52AM
505004RoadwayKTA 5Unavailable     Jul 2 2020 12:52AM
505005AtmosphericKTA 6 759424ENEJul 2 2020 12:52AM
505005Approach KTA 682     Jul 2 2020 12:52AM
505005DeckKTA 681     Jul 2 2020 12:52AM
505006AtmosphericKTA 7 799414EJul 2 2020 12:52AM
505006ApproachKTA 7Unavailable     Jul 2 2020 12:52AM
505006DeckKTA 784     Jul 2 2020 12:52AM
505007ApproachKTA 8Unavailable     Jul 2 2020 12:52AM
505007DeckKTA 882     Jul 2 2020 12:52AM
505008ApproachKTA 986     Jul 2 2020 12:52AM
505008DeckKTA 982     Jul 2 2020 12:52AM
505009ApproachKTA 1079     Jul 2 2020 12:52AM
505009DeckKTA 1081     Jul 2 2020 12:52AM
505014AtmosphericI-135 847826SEJul 2 2020 12:50AM
505014ApproachI-13593     Jul 2 2020 1:00AM
505014DeckI-13591     Jul 2 2020 1:00AM
540000AtmosphericBlue Rapids 739422NNEJul 2 2020 12:55AM
540000DeckBlue Rapids82     Jul 2 2020 12:55AM
540000DepartureBlue RapidsUnavailable     Jul 2 2020 12:55AM
540001AtmosphericSabetha 728511WJul 2 2020 12:55AM
540001ApproachSabethaUnavailable     Jul 2 2020 12:55AM
540001DeckSabethaUnavailable     Jul 2 2020 12:55AM
540002AtmosphericWestgate 818214EJul 2 2020 12:55AM
540002DeckWestgate82     Jul 2 2020 12:55AM
540002DepartureWestgateUnavailable     Jul 2 2020 12:55AM
540003AtmosphericEmporia      Jul 1 2020 8:30PM
540003ApproachEmporia      Jul 1 2020 8:30PM
540003DeckEmporia      Jul 1 2020 8:30PM
540007AtmosphericManhattan 759022ENEJul 2 2020 12:55AM
540007DepartureManhattan84     Jul 2 2020 12:55AM
540007DeckManhattan88     Jul 2 2020 12:55AM
541000AtmosphericElkhart      Jul 1 2020 7:35PM
541000ApproachElkhart      Jul 1 2020 7:35PM
541000DeckElkhart      Jul 1 2020 7:35PM
541000DeckElkhart      Jul 1 2020 7:35PM
541001AtmosphericSyracuse 7380711ESEJul 2 2020 12:55AM
541001Out of Service for WinterSyracuse84     Jul 2 2020 12:55AM
541001DeckSyracuseUnavailable     Jul 2 2020 12:55AM
541003AtmosphericFord 778647NNEJul 2 2020 12:55AM
541003DeckFordUnavailable     Jul 2 2020 12:55AM
541003DepartureFord86     Jul 2 2020 12:55AM
541004AtmosphericScott 709247SJul 2 2020 12:55AM
541004DepartureScott84     Jul 2 2020 12:55AM
541005AtmosphericNess 7775711EJul 2 2020 12:55AM
541005DeckNess82     Jul 2 2020 12:55AM
541005DepartureNess86     Jul 2 2020 12:55AM
543000AtmosphericJunction City 777347NNEJul 2 2020 12:55AM
543000ApproachJunction City84     Jul 2 2020 12:55AM
543000DeckJunction City82     Jul 2 2020 12:55AM
543001AtmosphericEllsworth 758979EJul 2 2020 12:55AM
543001RoadwayEllsworth84     Jul 2 2020 12:55AM
543003AtmosphericSalina 827089NEJul 2 2020 12:55AM
543003DepartureSalina88     Jul 2 2020 12:55AM
543003RoadwaySalina84     Jul 2 2020 12:55AM
543004AtmosphericConcordia 75854 ENEJul 2 2020 12:55AM
543004ApproachConcordia82     Jul 2 2020 12:55AM
543004DeckConcordiaUnavailable     Jul 2 2020 12:55AM
543005AtmosphericPeabody 799000EJul 2 2020 12:55AM
543005ApproachPeabody86     Jul 2 2020 12:55AM
543005DeckPeabodyUnavailable     Jul 2 2020 12:55AM
560000AtmosphericEdson 708658EJul 2 2020 12:55AM
560000RoadwayEdson79     Jul 2 2020 12:55AM
560000RoadwayEdson79     Jul 2 2020 12:55AM
560001AtmosphericOakley 728545ENEJul 2 2020 12:55AM
560001ApproachOakley82     Jul 2 2020 12:55AM
560001DeckOakley79     Jul 2 2020 12:55AM
560002AtmosphericAtwood 727724ESEJul 2 2020 12:55AM
560002ApproachAtwood82     Jul 2 2020 12:55AM
560002DeckAtwoodUnavailable     Jul 2 2020 12:55AM
560003AtmosphericJennings 727312NWJul 2 2020 12:55AM
560003ApproachJennings86     Jul 2 2020 12:55AM
560003DeckJennings84     Jul 2 2020 12:55AM
560003DeckJennings84     Jul 2 2020 12:55AM
560004AtmosphericWakeeney 737936ENEJul 2 2020 12:55AM
560004ApproachWakeeney81     Jul 2 2020 12:55AM
560004DeckWakeeney81     Jul 2 2020 12:55AM
560005AtmosphericWalker 7570911EJul 2 2020 12:55AM
560005ApproachWalker84     Jul 2 2020 12:55AM
560005DeckWalker82     Jul 2 2020 12:55AM
560006AtmosphericBow Creek(Stockton) 729402NNEJul 2 2020 12:55AM
560006ApproachBow Creek(Stockton)86     Jul 2 2020 12:55AM
560006DeckBow Creek(Stockton)84     Jul 2 2020 12:55AM
560007AtmosphericLebanon 667036ENEJul 2 2020 12:55AM
560007ApproachLebanonUnavailable     Jul 2 2020 12:55AM
560007DeckLebanon82     Jul 2 2020 12:55AM
560008AtmosphericWallace 728647NEJul 2 2020 12:55AM
560008ApproachWallace81     Jul 2 2020 12:55AM
560008DeckWallace77     Jul 2 2020 12:55AM
572000AtmosphericGreat Bend 7778711EJul 2 2020 12:55AM
572000ApproachGreat Bend84     Jul 2 2020 12:55AM
572000DeckGreat Bend82     Jul 2 2020 12:55AM
572001AtmosphericPratt 813203EJul 2 2020 12:55AM
572001ApproachPratt90     Jul 2 2020 12:55AM
572001DeckPratt90     Jul 2 2020 12:55AM
572002AtmosphericAnthony 847857SEJul 2 2020 12:55AM
572002ApproachAnthony93     Jul 2 2020 12:55AM
572002DeckAnthony95     Jul 2 2020 12:55AM
573000AtmosphericEureka 798948EJul 2 2020 12:55AM
573000DeckEureka90     Jul 2 2020 12:55AM
573000DepartureEureka90     Jul 2 2020 12:55AM
573001AtmosphericGarnett 758522NEJul 2 2020 12:55AM
573001ApproachGarnettUnavailable     Jul 2 2020 12:55AM
573001DeckGarnettUnavailable     Jul 2 2020 12:55AM
573003AtmosphericChetopa 799622WSWJul 2 2020 12:55AM
573003DeckChetopa90     Jul 2 2020 12:55AM
573003DeckChetopa90     Jul 2 2020 12:55AM
573003DepartureChetopaUnavailable     Jul 2 2020 12:55AM
573004AtmosphericChanute 798735ENEJul 2 2020 12:55AM
573004ApproachChanute90     Jul 2 2020 12:55AM
573004DeckChanute88     Jul 2 2020 12:55AM